Regional Weather Roundup
Issued by NWS Midland/Odessa, TX

Skip options and go directly to product.
Home | Oldest Version | Previous Version | Current Version | All | Graphics & Text | Save Text | Print | Product List | Glossary On

Skip product version selection by date and time.   
037
ASUS44 KMAF 281801
RWRMAF
MIDLAND AREA WEATHER ROUNDUP
NATIONAL WEATHER SERVICE MIDLAND TX
100 PM CDT SAT MAY 28 2016

...IN SOUTHWEST TEXAS AND SOUTHEAST NEW MEXICO...

CITY           SKY/WX    TMP DP  RH WIND       PRES   REMARKS
ALPINE         SUNNY     84  17   8 NE3       30.11S
ANDREWS        FAIR      85  26  11 CALM      30.01F
ARTESIA        SUNNY     79  37  22 E7        30.03F
BIG SPRING     SUNNY     82  42  24 N3        30.00F
CARLSBAD       SUNNY     80  33  18 N7        30.00F
DRYDEN           N/A     81  68  64 E10G20    29.96F
FORT STOCKTON  NOT AVBL
GUAD PASS      NOT AVBL
HOBBS          SUNNY     82  32  16 SE12      30.04F
MARFA          SUNNY     83  18   9 VRB5      30.08F
MIDLAND AIRPK  SUNNY     91  20   7 S8        29.99S
MIDLAND INTL   SUNNY     93  23   8 S12G24    29.97F
ODESSA         SUNNY     91  22   8 S12G23    29.99F
PECOS          SUNNY     88  20   8 NE5       29.97F
PRESIDIO       FAIR      91  26   9 SW3       29.94S
SEMINOLE       SUNNY     84  33  16 SW6       30.03F
SNYDER           N/A     82  48  30 CALM      29.99F
WINK           SUNNY     89  19   7 S9        29.96S
$$
...OTHER STATIONS IN TEXAS...

CITY           SKY/WX    TMP DP  RH WIND       PRES   REMARKS
ABILENE        SUNNY     86  63  45 SW7       29.96F
AMARILLO       SUNNY     74  44  34 SW3       30.06S
AUSTIN         PTSUNNY   86  76  71 S13G18    29.94F
BROWNSVILLE    MOSUNNY   88  75  65 SE21G30   29.90F
CORPUS CHRISTI PTSUNNY   86  75  69 SE21G28   29.93S
DALLAS FTW     PTSUNNY   78  68  71 SW9       29.96S
DEL RIO        PTSUNNY   86  70  58 SE14G21   29.91F
EL PASO        SUNNY     83  18   9 S8        30.01S
HOUSTON INT    MOSUNNY   86  70  58 SW8       29.97S
LUBBOCK        SUNNY     77  44  30 VRB7      30.03F
SAN ANGELO     SUNNY     83  70  64 SW13G18   29.97S
SAN ANTONIO    PTSUNNY   88  74  63 S14       29.95F
WACO           CLOUDY    82  71  69 SW10      29.97R
WICHITA FALLS  NOT AVBL
$$
...OTHER LOCATIONS IN NEW MEXICO...

CITY           SKY/WX    TMP DP  RH WIND       PRES   REMARKS
ALAMAGORDO     SUNNY     82  23  11 S9G18     30.03F
ALBUQUERQUE    MOSUNNY   74  22  14 CALM      30.09F
CANNON AFB     SUNNY     75  40  28 S8        30.07F
CLOVIS         SUNNY     75  43  31 SE6       30.07F
HOLLOMAN AFB   MOSUNNY   82  20  10 S10       30.01F
ROSWELL        SUNNY     79  39  23 N6        30.03F
RUIDOSO        NOT AVBL
SANTA FE       SUNNY     72  20  14 SW12      30.13F
TRUTH OR CONSE SUNNY     78  22  12 S5        30.04F
TUCUMCARI      SUNNY     77  37  23 VRB3      30.04F
$$

USA.gov is the U.S. government's official web portal to all federal, state and local government web resources and services.